period_start,C,m1,H,J0,J1,J2,J3,J4,J5,JA,JB,JC,JD,JJ,JK,JN,#
2016-09-06 00:04:59,0.22,1.88,0.00,23.73,27.88,30.75,14.50,48.58,1018.08,2033.02,2856.69,2604.88,2977.52,599.96,595.39,16.83,0000 0000 0000 0000 000000
2016-09-06 00:10:00,0.16,1.89,0.00,23.73,27.90,30.77,14.52,48.49,1018.08,2033.01,2853.42,2602.75,2975.08,600.00,595.54,16.88,0000 0000 0000 0000 000000
2016-09-06 00:15:01,0.14,1.90,0.00,23.75,27.90,30.78,14.51,48.36,1018.08,2033.01,2850.89,2601.02,2973.11,599.87,595.24,16.93,0000 0000 0000 0000 000000
2016-09-06 00:20:03,0.12,1.90,0.00,23.76,27.90,30.82,14.47,48.44,1018.08,2033.01,2848.56,2599.60,2971.52,599.96,595.28,16.98,0000 0000 0000 0000 000000
2016-09-06 00:25:04,0.11,1.91,0.00,23.78,27.90,30.83,14.49,48.33,1018.08,2033.00,2846.35,2598.25,2969.91,599.94,595.22,17.03,0000 0000 0000 0000 000000
2016-09-06 00:30:05,0.09,1.91,0.00,23.79,27.90,30.80,14.51,48.35,1018.08,2033.00,2844.51,2597.08,2968.64,599.98,595.21,17.08,0000 0000 0000 0000 000000
2016-09-06 00:35:07,0.09,1.92,0.00,23.81,27.90,30.82,14.47,48.25,1018.08,2033.00,2842.75,2596.03,2967.42,600.03,595.21,17.13,0000 0000 0000 0000 000000
2016-09-06 00:40:08,0.08,1.92,0.00,23.81,27.90,30.84,14.53,48.17,1018.08,2033.00,2841.17,2595.03,2966.26,599.91,595.21,17.18,0000 0000 0000 0000 000000
2016-09-06 00:45:10,0.08,1.93,0.00,23.81,27.90,30.84,14.46,48.26,1018.08,2033.00,2839.67,2594.06,2965.16,599.93,595.20,17.23,0000 0000 0000 0000 000000
2016-09-06 00:50:10,0.07,1.93,0.00,23.84,27.90,30.83,14.52,48.31,1018.08,2033.00,2838.17,2593.11,2964.09,600.11,595.41,17.28,0000 0000 0000 0000 000000
2016-09-06 00:55:12,0.10,1.94,0.00,23.84,27.90,30.87,14.46,48.18,1018.08,2033.00,2836.35,2592.05,2962.82,599.83,595.09,17.33,0000 0000 0000 0000 000000
2016-09-06 01:00:13,0.08,1.94,0.00,23.88,27.90,30.89,14.40,48.37,1018.08,2033.00,2834.71,2591.03,2961.70,599.64,594.76,17.38,0000 0000 0000 0000 000000
2016-09-06 01:05:14,0.05,1.94,0.00,23.88,27.91,30.87,14.35,48.36,1018.09,2033.00,2833.72,2590.20,2960.99,599.66,594.84,17.43,0000 0000 0000 0000 000000
2016-09-06 01:10:16,0.04,1.95,0.00,23.91,27.92,30.85,14.39,48.24,1018.09,2033.00,2832.83,2589.94,2960.21,599.84,594.95,17.48,0000 0000 0000 0000 000000
2016-09-06 01:15:17,0.04,1.95,0.00,23.95,27.92,30.86,14.46,48.20,1018.09,2033.00,2832.04,2589.24,2959.90,600.11,595.10,17.53,0000 0000 0000 0000 000000
2016-09-06 01:20:18,0.03,1.95,0.00,23.96,27.92,30.88,14.45,48.20,1018.09,2033.00,2831.29,2589.00,2959.15,599.90,594.87,17.58,0000 0000 0000 0000 000000
2016-09-06 01:25:19,0.02,1.95,0.00,23.96,27.93,30.89,14.46,48.15,1018.10,2033.00,2830.91,2588.67,2958.98,599.75,594.73,17.63,0000 0000 0000 0000 000000
2016-09-06 01:30:21,0.04,1.95,0.00,24.00,27.95,30.90,14.44,48.23,1018.10,2033.00,2830.15,2588.06,2958.38,599.81,594.73,17.68,0000 0000 0000 0000 000000
2016-09-06 01:35:22,0.00,1.95,0.00,23.99,27.95,30.92,14.48,48.19,1018.10,2033.00,2829.93,2588.00,2958.01,600.09,594.97,17.73,0000 0000 0000 0000 000000
2016-09-06 01:40:23,0.08,1.96,0.00,24.00,27.95,30.91,14.50,48.24,1018.11,2033.00,2828.66,2587.50,2957.50,599.98,594.96,17.78,0000 0000 0000 0000 000000
2016-09-06 01:45:25,0.01,1.96,0.00,24.03,27.97,30.91,14.44,48.34,1018.12,2032.99,2827.80,2587.01,2957.00,599.82,594.68,17.83,0000 0000 0000 0000 000000
2016-09-06 01:50:26,0.06,1.96,0.00,24.08,27.97,30.93,14.49,48.21,1018.14,2032.99,2826.63,2586.58,2956.45,600.17,594.95,17.88,0000 0000 0000 0000 000000
2016-09-06 01:55:27,0.06,1.97,0.00,24.11,27.99,30.94,14.44,48.03,1018.14,2032.98,2824.96,2585.87,2955.51,599.92,594.63,17.93,0000 0000 0000 0000 000000
2016-09-06 02:00:28,0.03,1.97,0.00,24.10,28.00,30.97,14.45,48.03,1018.16,2032.98,2824.05,2585.14,2955.01,599.82,594.55,17.98,0000 0000 0000 0000 000000
2016-09-06 02:05:30,0.00,1.97,0.00,24.13,28.01,30.97,14.46,48.03,1018.16,2032.98,2823.88,2585.01,2954.93,599.85,594.52,18.03,0000 0000 0000 0000 000000
2016-09-06 02:10:31,0.03,1.97,0.00,24.14,28.02,31.01,14.47,48.01,1018.13,2032.93,2823.09,2584.97,2954.19,599.88,594.56,18.08,0000 0000 0000 0000 000000
2016-09-06 02:15:32,0.02,1.97,0.00,24.13,28.03,31.01,14.43,47.98,1018.11,2032.83,2822.79,2584.42,2953.99,599.78,594.43,18.13,0000 0000 0000 0000 000000
2016-09-06 02:20:33,0.00,1.97,0.00,24.17,28.05,31.01,14.48,47.94,1018.10,2032.47,2822.05,2584.01,2953.54,600.13,594.62,18.18,0000 0000 0000 0000 000000
2016-09-06 02:25:34,0.00,1.97,0.00,24.19,28.05,31.04,14.48,47.91,1018.13,2032.34,2821.89,2583.98,2953.03,599.93,594.48,18.23,0000 0000 0000 0000 000000
2016-09-06 02:30:35,0.01,1.97,0.00,24.22,28.07,31.06,14.47,48.13,1018.12,2032.10,2821.13,2583.62,2952.99,600.08,594.53,18.28,0000 0000 0000 0000 000000
2016-09-06 02:35:37,0.01,1.97,0.00,24.21,28.07,31.06,14.46,48.01,1018.16,2032.03,2820.99,2583.03,2952.63,599.88,594.42,18.33,0000 0000 0000 0000 000000
2016-09-06 02:40:38,0.02,1.97,0.00,24.23,28.10,31.09,14.40,47.99,1018.19,2032.02,2820.43,2583.00,2952.08,600.05,594.54,18.38,0000 0000 0000 0000 000000
2016-09-06 02:45:39,0.00,1.97,0.00,24.24,28.10,31.09,14.49,48.02,1018.14,2032.02,2820.00,2582.97,2952.00,600.08,594.37,18.43,0000 0000 0000 0000 000000
2016-09-06 02:50:40,0.02,1.98,0.00,24.24,28.11,31.10,14.49,47.96,1018.25,2032.01,2819.86,2582.49,2951.85,600.18,594.71,18.48,0000 0000 0000 0000 000000
2016-09-06 02:55:42,0.03,1.98,0.00,24.25,28.12,31.11,14.53,47.96,1018.24,2032.00,2819.13,2582.07,2951.18,600.04,594.55,18.53,0000 0000 0000 0000 000000
2016-09-06 03:00:43,0.00,1.98,0.00,24.25,28.13,31.12,14.51,48.14,1018.32,2032.00,2818.99,2582.00,2951.00,600.14,594.66,18.58,0000 0000 0000 0000 000000
2016-09-06 03:05:44,0.01,1.98,0.00,24.27,28.15,31.11,14.50,48.17,1018.33,2032.00,2818.53,2581.95,2950.94,599.95,594.47,18.63,0000 0000 0000 0000 000000
2016-09-06 03:10:45,0.04,1.98,0.00,24.27,28.16,31.15,14.42,48.02,1018.48,2032.00,2818.02,2581.41,2950.32,599.96,594.62,18.68,0000 0000 0000 0000 000000
2016-09-06 03:15:47,0.00,1.98,0.00,24.31,28.17,31.16,14.52,48.14,1018.55,2032.00,2817.90,2581.03,2950.01,599.94,594.61,18.73,0000 0000 0000 0000 000000
2016-09-06 03:20:48,0.01,1.98,0.00,24.31,28.17,31.16,14.51,48.22,1018.57,2032.00,2817.25,2581.00,2949.99,600.33,594.88,18.78,0000 0000 0000 0000 000000
2016-09-06 03:25:50,0.01,1.98,0.00,24.31,28.19,31.19,14.47,48.34,1018.57,2032.00,2817.00,2580.98,2949.61,600.09,594.63,18.83,0000 0000 0000 0000 000000
2016-09-06 03:30:51,0.02,1.98,0.00,24.33,28.20,31.22,14.42,48.29,1018.57,2031.99,2816.86,2580.63,2949.05,599.78,594.43,18.88,0000 0000 0000 0000 000000
2016-09-06 03:35:52,0.03,1.99,0.00,24.31,28.20,31.23,14.44,48.32,1018.56,2031.97,2816.09,2580.06,2949.00,600.07,594.60,18.93,0000 0000 0000 0000 000000
2016-09-06 03:40:53,0.00,1.99,0.00,24.35,28.22,31.23,14.45,48.18,1018.45,2031.96,2816.00,2580.00,2948.96,599.94,594.35,18.98,0000 0000 0000 0000 000000
2016-09-06 03:45:55,0.01,1.99,0.00,24.34,28.22,31.23,14.47,48.18,1018.45,2031.95,2815.97,2579.99,2948.47,600.08,594.47,19.03,0000 0000 0000 0000 000000
2016-09-06 03:50:56,0.02,1.99,0.00,24.35,28.22,31.24,14.53,48.33,1018.56,2031.92,2815.23,2579.90,2948.04,599.99,594.45,19.08,0000 0000 0000 0000 000000
2016-09-06 03:55:58,0.02,1.99,0.00,24.33,28.25,31.24,14.51,48.11,1018.57,2031.86,2815.00,2579.21,2947.99,600.34,594.84,19.13,0000 0000 0000 0000 000000
2016-09-06 04:00:59,-0.03,1.99,0.00,24.34,28.25,31.25,14.44,48.05,1018.57,2031.56,2814.91,2579.02,2947.80,599.69,594.19,19.18,0000 0000 0000 0000 000000
2016-09-06 04:06:00,0.01,1.99,0.00,24.34,28.25,31.26,14.51,48.12,1018.57,2031.41,2814.41,2579.00,2947.26,600.17,594.70,19.23,0000 0000 0000 0000 000000
2016-09-06 04:11:02,-0.00,1.99,0.00,24.33,28.26,31.27,14.38,48.02,1018.57,2031.26,2814.04,2579.00,2947.02,599.60,594.19,19.28,0000 0000 0000 0000 000000
2016-09-06 04:16:03,-0.02,1.99,0.00,24.33,28.27,31.28,14.53,47.99,1018.57,2031.05,2813.99,2578.95,2947.00,600.16,594.70,19.33,0000 0000 0000 0000 000000
2016-09-06 04:21:04,0.01,1.99,0.00,24.34,28.27,31.26,14.49,48.15,1018.57,2031.03,2813.92,2578.61,2946.97,599.88,594.41,19.38,0000 0000 0000 0000 000000
2016-09-06 04:26:05,0.03,1.99,0.00,24.32,28.27,31.29,14.49,48.04,1018.57,2031.04,2813.43,2578.14,2946.81,599.86,594.37,19.43,0000 0000 0000 0000 000000
2016-09-06 04:31:07,0.01,1.99,0.00,24.33,28.29,31.31,14.51,47.98,1018.58,2031.02,2813.05,2578.04,2946.35,599.87,594.43,19.48,0000 0000 0000 0000 000000
2016-09-06 04:36:08,0.00,1.99,0.00,24.32,28.30,31.30,14.48,47.99,1018.58,2031.02,2813.00,2578.01,2946.06,600.22,594.76,19.53,0000 0000 0000 0000 000000
2016-09-06 04:41:09,-0.00,1.99,0.00,24.33,28.30,31.32,14.50,48.03,1018.57,2031.01,2812.99,2578.00,2946.01,600.15,594.56,19.58,0000 0000 0000 0000 000000
2016-09-06 04:46:10,0.00,1.99,0.00,24.32,28.30,31.31,14.53,48.16,1018.57,2031.00,2812.85,2577.99,2945.99,600.12,594.53,19.63,0000 0000 0000 0000 000000
2016-09-06 04:51:11,0.00,1.99,0.00,24.33,28.30,31.34,14.53,48.15,1018.57,2031.00,2812.45,2577.97,2945.98,599.91,594.30,19.68,0000 0000 0000 0000 000000
2016-09-06 04:56:13,0.02,1.99,0.00,24.33,28.31,31.33,14.44,48.09,1018.57,2031.00,2812.08,2577.71,2945.78,599.60,594.09,19.73,0000 0000 0000 0000 000000
2016-09-06 05:01:14,0.02,1.99,0.00,24.33,28.32,31.32,14.42,47.83,1018.57,2031.00,2812.00,2577.24,2945.27,599.94,594.42,19.78,0000 0000 0000 0000 000000
2016-09-06 05:06:15,0.00,1.99,0.00,24.32,28.32,31.32,14.47,47.84,1018.57,2031.00,2811.98,2577.02,2945.02,600.00,594.53,19.83,0000 0000 0000 0000 000000
2016-09-06 05:11:16,0.00,1.99,0.00,24.31,28.32,31.31,14.46,48.03,1018.57,2031.00,2811.96,2577.00,2945.00,599.70,594.27,19.88,0000 0000 0000 0000 000000
2016-09-06 05:16:18,0.01,2.00,0.00,24.32,28.32,31.33,14.53,48.02,1018.56,2031.00,2811.41,2577.00,2945.00,600.17,594.69,19.93,0000 0000 0000 0000 000000
2016-09-06 05:21:19,0.00,2.00,0.00,24.34,28.32,31.32,14.43,48.02,1018.54,2031.00,2811.07,2577.00,2944.97,599.93,594.40,19.98,0000 0000 0000 0000 000000
2016-09-06 05:26:21,0.01,2.00,0.00,24.33,28.32,31.34,14.48,48.01,1018.51,2031.00,2811.01,2576.98,2944.72,600.07,594.65,20.03,0000 0000 0000 0000 000000
2016-09-06 05:31:22,0.02,2.00,0.00,24.34,28.33,31.35,14.52,48.04,1018.49,2030.99,2810.99,2576.67,2944.15,600.15,594.53,20.08,0000 0000 0000 0000 000000
2016-09-06 05:36:24,0.02,2.00,0.00,24.33,28.33,31.37,14.47,48.12,1018.37,2030.99,2810.76,2576.22,2944.02,600.19,594.57,20.14,0000 0000 0000 0000 000000
2016-09-06 05:41:25,0.01,2.00,0.00,24.32,28.34,31.35,14.47,48.00,1018.23,2030.98,2810.21,2576.06,2944.00,599.77,594.10,20.19,0000 0000 0000 0000 000000
2016-09-06 05:46:27,0.00,2.00,0.00,24.36,28.34,31.34,14.51,47.99,1018.21,2030.99,2810.03,2576.02,2944.00,600.16,594.44,20.24,0000 0000 0000 0000 000000
2016-09-06 05:51:28,0.00,2.00,0.00,24.34,28.35,31.37,14.54,47.92,1018.22,2030.99,2809.85,2576.00,2943.96,600.21,594.48,20.29,0000 0000 0000 0000 000000
2016-09-06 05:56:29,0.10,2.00,0.00,24.33,28.35,31.37,14.51,47.95,1018.23,2030.98,2808.03,2575.26,2943.02,599.97,594.16,20.34,0000 0000 0000 0000 000000
2016-09-06 06:01:31,0.03,2.01,0.00,24.32,28.35,31.38,14.47,47.94,1018.19,2030.97,2806.84,2574.94,2942.11,599.98,594.34,20.39,0000 0000 0000 0000 000000
2016-09-06 06:06:32,0.01,2.01,0.00,24.32,28.35,31.35,14.53,48.03,1018.31,2030.97,2806.24,2574.80,2942.00,599.94,594.32,20.44,0000 0000 0000 0000 000000
2016-09-06 06:11:33,0.01,2.01,0.00,24.33,28.35,31.37,14.50,48.08,1018.52,2030.97,2806.05,2574.53,2942.00,599.96,594.37,20.49,0000 0000 0000 0000 000000
2016-09-06 06:16:34,0.01,2.01,0.00,24.32,28.35,31.37,14.40,48.05,1018.55,2030.97,2806.02,2574.25,2942.00,600.01,594.52,20.54,0000 0000 0000 0000 000000
2016-09-06 06:21:35,0.00,2.01,0.00,24.32,28.35,31.35,14.44,47.96,1018.54,2030.97,2806.00,2574.05,2941.98,599.92,594.44,20.59,0000 0000 0000 0000 000000
2016-09-06 06:26:36,0.00,2.01,0.00,24.32,28.35,31.36,14.52,48.13,1018.35,2030.97,2806.00,2574.03,2941.98,600.27,594.64,20.64,0000 0000 0000 0000 000000
2016-09-06 06:31:37,0.00,2.01,0.00,24.33,28.35,31.37,14.39,48.15,1018.29,2030.95,2805.86,2574.01,2941.82,599.79,594.15,20.69,0000 0000 0000 0000 000000
2016-09-06 06:36:39,0.02,2.01,0.00,24.33,28.35,31.40,14.43,48.20,1018.31,2030.95,2805.39,2574.00,2941.47,599.72,594.14,20.74,0000 0000 0000 0000 000000
2016-09-06 06:41:40,0.01,2.01,0.00,24.33,28.35,31.39,14.45,48.10,1018.23,2030.93,2805.02,2573.98,2941.08,599.84,594.14,20.79,0000 0000 0000 0000 000000
2016-09-06 06:46:41,0.00,2.01,0.00,24.30,28.35,31.37,14.40,48.12,1018.11,2030.95,2804.98,2573.96,2941.00,599.74,594.11,20.84,0000 0000 0000 0000 000000
2016-09-06 06:51:42,0.01,2.01,0.00,24.30,28.35,31.38,14.45,48.18,1018.10,2030.96,2804.85,2573.83,2940.99,599.94,594.21,20.89,0000 0000 0000 0000 000000
2016-09-06 06:56:43,0.03,2.01,0.00,24.30,28.35,31.38,14.50,48.02,1018.09,2030.94,2804.20,2573.37,2940.98,600.23,594.52,20.94,0000 0000 0000 0000 000000
2016-09-06 07:01:45,0.00,2.01,0.00,24.29,28.35,31.39,14.49,47.92,1018.14,2030.89,2804.02,2573.07,2940.91,600.09,594.53,20.99,0000 0000 0000 0000 000000
2016-09-06 07:06:46,0.01,2.01,0.00,24.28,28.35,31.39,14.43,48.13,1018.12,2030.91,2804.00,2573.02,2940.77,599.91,594.27,21.04,0000 0000 0000 0000 000000
2016-09-06 07:11:47,0.01,2.01,0.00,24.27,28.35,31.36,14.38,48.08,1018.13,2030.93,2804.00,2573.02,2940.58,599.62,594.04,21.09,0000 0000 0000 0000 000000
2016-09-06 07:16:49,0.01,2.01,0.00,24.28,28.35,31.36,14.45,47.92,1018.12,2030.93,2803.98,2573.00,2940.22,599.90,594.24,21.14,0000 0000 0000 0000 000000
2016-09-06 07:21:50,-0.00,2.01,0.00,24.28,28.35,31.37,14.45,47.99,1018.17,2030.88,2803.96,2573.00,2940.03,600.09,594.57,21.19,0000 0000 0000 0000 000000
2016-09-06 07:26:51,0.00,2.01,0.00,24.29,28.35,31.38,14.53,48.05,1018.15,2030.90,2803.94,2573.00,2940.02,600.24,594.61,21.24,0000 0000 0000 0000 000000
2016-09-06 07:31:53,0.01,2.01,0.00,24.31,28.35,31.39,14.51,48.05,1018.13,2030.92,2803.72,2573.00,2940.00,600.13,594.40,21.29,0000 0000 0000 0000 000000
2016-09-06 07:36:54,0.01,2.02,0.00,24.30,28.35,31.39,14.48,47.90,1018.09,2030.92,2803.36,2573.00,2940.01,600.35,594.58,21.34,0000 0000 0000 0000 000000
2016-09-06 07:41:56,-0.00,2.02,0.00,24.26,28.35,31.37,14.55,48.04,1018.09,2030.88,2803.05,2572.98,2940.00,600.11,594.53,21.39,0000 0000 0000 0000 000000
2016-09-06 07:46:57,0.01,2.02,0.00,24.28,28.35,31.39,14.48,48.12,1018.10,2030.90,2803.01,2572.98,2939.99,600.18,594.52,21.44,0000 0000 0000 0000 000000
2016-09-06 07:51:58,0.00,2.02,0.00,24.26,28.35,31.38,14.50,48.10,1018.09,2030.94,2803.00,2572.94,2939.98,600.46,594.76,21.49,0000 0000 0000 0000 000000
2016-09-06 07:56:59,0.00,2.02,0.00,24.27,28.35,31.36,14.49,48.05,1018.09,2030.92,2803.00,2572.85,2939.95,600.10,594.40,21.54,0000 0000 0000 0000 000000
2016-09-06 08:02:00,0.00,2.02,0.00,24.26,28.34,31.38,14.44,48.10,1018.09,2030.95,2803.00,2572.83,2939.96,599.74,594.18,21.59,0000 0000 0000 0000 000000
2016-09-06 08:07:02,0.01,2.02,0.00,24.26,28.34,31.37,14.50,48.22,1018.09,2030.96,2802.98,2572.63,2939.87,600.05,594.50,21.64,0000 0000 0000 0000 000000
2016-09-06 08:12:03,0.03,2.02,0.00,24.26,28.34,31.37,14.53,47.98,1018.10,2030.97,2802.78,2572.28,2939.57,600.21,594.58,21.69,0000 0000 0000 0000 000000
2016-09-06 08:17:04,0.02,2.02,0.00,24.24,28.33,31.35,14.51,47.90,1018.10,2030.95,2802.29,2572.08,2939.18,600.15,594.58,21.74,0000 0000 0000 0000 000000
2016-09-06 08:22:06,0.00,2.02,0.00,24.23,28.32,31.36,14.42,48.26,1018.10,2030.94,2802.10,2572.06,2939.07,600.03,594.43,21.79,0000 0000 0000 0000 000000
2016-09-06 08:27:07,0.00,2.02,0.00,24.22,28.32,31.36,14.46,48.21,1018.13,2030.96,2802.03,2572.03,2939.04,599.81,594.29,21.84,0000 0000 0000 0000 000000
2016-09-06 08:32:08,0.00,2.02,0.00,24.23,28.32,31.37,14.48,48.22,1018.16,2030.96,2802.00,2572.02,2939.03,600.10,594.60,21.89,0000 0000 0000 0000 000000
2016-09-06 08:37:09,-0.00,2.02,0.00,24.23,28.32,31.37,14.47,48.05,1018.11,2030.97,2802.01,2572.02,2939.01,599.98,594.46,21.94,0000 0000 0000 0000 000000
2016-09-06 08:42:11,0.00,2.02,0.00,24.23,28.32,31.36,14.47,47.98,1018.10,2030.97,2802.00,2572.00,2939.00,599.82,594.16,21.99,0000 0000 0000 0000 000000
2016-09-06 08:47:12,-0.00,2.02,0.00,24.21,28.32,31.36,14.48,48.13,1018.09,2030.97,2802.00,2572.01,2939.00,599.99,594.42,22.04,0000 0000 0000 0000 000000
2016-09-06 08:52:13,-0.00,2.02,0.00,24.20,28.31,31.36,14.52,47.93,1018.08,2030.98,2802.00,2572.00,2939.01,599.99,594.33,22.09,0000 0000 0000 0000 000000
2016-09-06 08:57:15,0.00,2.02,0.00,24.20,28.30,31.37,14.47,47.91,1018.08,2030.98,2801.99,2572.00,2939.00,599.73,594.30,22.14,0000 0000 0000 0000 000000
2016-09-06 09:02:16,0.00,2.02,0.00,24.19,28.30,31.34,14.51,47.99,1018.08,2030.98,2801.97,2572.00,2938.99,600.16,594.74,22.19,0000 0000 0000 0000 000000
2016-09-06 09:07:17,0.00,2.02,0.00,24.20,28.30,31.35,14.52,48.02,1018.08,2030.98,2801.96,2572.00,2938.99,599.80,594.27,22.24,0000 0000 0000 0000 000000
2016-09-06 09:12:18,0.00,2.02,0.00,24.19,28.30,31.32,14.54,47.95,1018.08,2030.99,2801.93,2572.00,2938.99,600.24,594.77,22.29,0000 0000 0000 0000 000000
2016-09-06 09:17:20,0.00,2.02,0.00,24.18,28.30,31.32,14.47,48.16,1018.09,2030.98,2801.65,2572.00,2938.98,599.76,594.33,22.34,0000 0000 0000 0000 000000
2016-09-06 09:22:21,0.00,2.02,0.00,24.18,28.30,31.35,14.52,48.09,1018.10,2030.99,2801.45,2572.00,2938.97,599.92,594.52,22.39,0000 0000 0000 0000 000000
2016-09-06 09:27:22,0.00,2.02,0.00,24.17,28.28,31.32,14.47,48.11,1018.10,2030.99,2801.22,2572.00,2938.96,600.01,594.57,22.44,0000 0000 0000 0000 000000
2016-09-06 09:32:24,0.00,2.02,0.00,24.14,28.27,31.31,14.56,48.08,1018.11,2030.99,2801.10,2571.99,2938.93,600.46,595.13,22.49,0000 0000 0000 0000 000000
2016-09-06 09:37:25,0.00,2.02,0.00,24.13,28.27,31.33,14.49,47.99,1018.10,2030.98,2801.02,2571.98,2938.71,599.55,594.21,22.54,0000 0000 0000 0000 000000
2016-09-06 09:42:27,-0.00,2.02,0.00,24.15,28.27,31.32,14.47,48.08,1018.11,2030.98,2801.01,2571.98,2938.61,599.83,594.45,22.59,0000 0000 0000 0000 000000
2016-09-06 09:47:28,0.00,2.02,0.00,24.12,28.26,31.30,14.46,48.13,1018.11,2030.99,2801.02,2571.99,2938.79,599.85,594.58,22.64,0000 0000 0000 0000 000000
2016-09-06 09:52:29,0.00,2.02,0.00,24.11,28.25,31.28,14.52,48.02,1018.09,2030.99,2801.01,2571.99,2938.90,600.00,594.57,22.69,0000 0000 0000 0000 000000
2016-09-06 09:57:30,0.00,2.02,0.00,24.11,28.25,31.26,14.47,47.95,1018.10,2030.99,2801.00,2571.99,2938.83,600.01,594.73,22.74,0000 0000 0000 0000 000000
2016-09-06 10:02:31,0.00,2.02,0.00,24.11,28.25,31.27,14.42,47.97,1018.09,2031.00,2801.01,2571.99,2938.82,600.09,594.79,22.79,0000 0000 0000 0000 000000
2016-09-06 10:07:33,0.00,2.02,0.00,24.10,28.24,31.28,14.49,48.07,1018.09,2031.00,2801.00,2571.98,2938.53,600.16,594.85,22.84,0000 0000 0000 0000 000000
2016-09-06 10:12:33,0.00,2.02,0.00,24.08,28.23,31.24,14.57,48.07,1018.08,2031.01,2801.00,2571.98,2938.46,600.17,594.89,22.89,0000 0000 0000 0000 000000
2016-09-06 10:17:35,0.00,2.02,0.00,24.06,28.22,31.27,14.47,48.01,1018.08,2031.00,2801.00,2571.97,2938.24,599.77,594.51,22.94,0000 0000 0000 0000 000000
2016-09-06 10:22:36,0.00,2.02,0.00,24.05,28.22,31.25,14.45,48.19,1018.08,2031.01,2800.98,2571.98,2938.12,599.75,594.45,22.99,0000 0000 0000 0000 000000
2016-09-06 10:27:37,0.01,2.02,0.00,24.03,28.21,31.26,14.47,48.13,1018.08,2031.01,2800.62,2571.97,2938.03,600.01,594.83,23.04,0000 0000 0000 0000 000000
2016-09-06 10:32:39,0.00,2.02,0.00,24.05,28.20,31.24,14.50,47.93,1018.08,2031.01,2800.25,2571.94,2938.01,600.08,594.90,23.09,0000 0000 0000 0000 000000
2016-09-06 10:37:40,0.06,2.02,0.00,24.05,28.20,31.24,14.49,48.15,1018.07,2031.01,2799.48,2571.33,2937.75,599.96,594.62,23.14,0000 0000 0000 0000 000000
2016-09-06 10:42:41,0.07,2.03,0.00,24.03,28.20,31.26,14.46,48.08,1018.05,2031.02,2797.77,2570.52,2937.02,599.77,594.65,23.19,0000 0000 0000 0000 000000
2016-09-06 10:47:42,0.01,2.03,0.00,24.02,28.18,31.23,14.52,48.02,1017.96,2031.02,2797.08,2570.11,2936.97,600.00,594.77,23.24,0000 0000 0000 0000 000000
2016-09-06 10:52:43,0.01,2.03,0.00,24.02,28.17,31.24,14.43,48.04,1017.96,2031.06,2797.02,2570.10,2936.96,599.97,594.77,23.29,0000 0000 0000 0000 000000
2016-09-06 10:57:45,0.00,2.03,0.00,24.00,28.17,31.23,14.49,48.15,1017.98,2031.09,2797.00,2570.06,2936.94,599.79,594.55,23.34,0000 0000 0000 0000 000000
2016-09-06 11:02:46,0.00,2.03,0.00,24.01,28.17,31.22,14.51,48.12,1017.88,2031.15,2797.00,2570.05,2936.88,600.11,594.74,23.39,0000 0000 0000 0000 000000
2016-09-06 11:07:47,0.02,2.03,0.00,23.98,28.16,31.19,14.46,48.04,1017.61,2031.28,2797.00,2570.04,2936.77,600.10,594.77,23.44,0000 0000 0000 0000 000000
2016-09-06 11:12:48,0.00,2.03,0.00,23.98,28.15,31.20,14.43,47.99,1017.59,2031.18,2796.98,2570.02,2936.29,599.75,594.27,23.49,0000 0000 0000 0000 000000
2016-09-06 11:17:49,0.04,2.03,0.00,23.95,28.15,31.22,14.47,48.01,1017.59,2031.49,2796.96,2570.01,2936.23,599.88,594.66,23.54,0000 0000 0000 0000 000000
2016-09-06 11:22:50,0.01,2.04,0.00,23.96,28.14,31.19,14.46,48.07,1017.59,2031.76,2796.89,2570.02,2936.15,599.95,594.65,23.59,0000 0000 0000 0000 000000
2016-09-06 11:27:52,0.01,2.04,0.00,23.94,28.12,31.15,14.48,48.04,1017.44,2031.71,2796.46,2570.00,2936.07,600.00,594.62,23.64,0000 0000 0000 0000 000000
2016-09-06 11:32:53,0.01,2.04,0.00,23.94,28.12,31.17,14.51,48.02,1017.45,2031.79,2796.13,2570.00,2936.02,600.12,594.69,23.69,0000 0000 0000 0000 000000
2016-09-06 11:37:55,0.00,2.04,0.00,23.90,28.11,31.17,14.50,48.05,1017.55,2031.85,2796.04,2570.00,2936.01,600.04,594.76,23.74,0000 0000 0000 0000 000000
2016-09-06 11:42:56,0.00,2.04,0.00,23.91,28.10,31.13,14.46,48.12,1017.57,2031.84,2796.00,2570.00,2936.00,599.79,594.62,23.79,0000 0000 0000 0000 000000
2016-09-06 11:47:57,0.00,2.04,0.00,23.94,28.10,31.16,14.52,48.09,1017.59,2031.91,2796.00,2570.00,2936.00,599.95,594.61,23.85,0000 0000 0000 0000 000000
2016-09-06 11:52:58,0.00,2.04,0.00,23.89,28.09,31.11,14.49,48.03,1017.58,2031.94,2796.00,2570.00,2936.00,600.05,594.89,23.90,0000 0000 0000 0000 000000
2016-09-06 11:57:59,0.00,2.04,0.00,23.86,28.07,31.12,14.47,48.09,1017.58,2031.99,2795.96,2569.99,2935.98,599.56,594.40,23.95,0000 0000 0000 0000 000000
2016-09-06 12:03:00,-0.00,2.04,0.00,23.85,28.07,31.11,14.40,47.98,1017.54,2031.96,2795.91,2569.98,2935.98,599.64,594.52,24.00,0000 0000 0000 0000 000000
2016-09-06 12:08:02,0.00,2.04,0.00,23.85,28.06,31.10,14.52,48.06,1017.54,2031.98,2795.74,2569.99,2935.97,600.44,595.30,24.05,0000 0000 0000 0000 000000
2016-09-06 12:13:03,0.01,2.04,0.00,23.86,28.05,31.10,14.46,48.16,1017.51,2031.98,2795.22,2569.96,2935.95,599.96,594.75,24.10,0000 0000 0000 0000 000000
2016-09-06 12:18:04,0.00,2.04,0.00,23.84,28.05,31.09,14.47,47.92,1017.39,2031.99,2795.05,2569.98,2935.87,600.13,594.88,24.15,0000 0000 0000 0000 000000
2016-09-06 12:23:06,0.01,2.04,0.00,23.84,28.04,31.08,14.44,48.06,1017.37,2031.99,2795.01,2569.94,2935.65,599.78,594.60,24.20,0000 0000 0000 0000 000000
2016-09-06 12:28:07,0.00,2.04,0.00,23.82,28.02,31.04,14.48,48.08,1017.14,2031.99,2795.00,2569.92,2935.25,599.76,594.45,24.25,0000 0000 0000 0000 000000
2016-09-06 12:33:08,0.01,2.04,0.00,23.81,28.02,31.02,14.50,48.11,1017.11,2031.99,2795.00,2569.79,2935.16,600.01,594.59,24.30,0000 0000 0000 0000 000000
2016-09-06 12:38:10,0.00,2.04,0.00,23.80,28.01,31.04,14.47,48.18,1017.11,2031.99,2794.96,2569.52,2935.01,599.94,594.68,24.35,0000 0000 0000 0000 000000
2016-09-06 12:43:11,0.02,2.04,0.00,23.77,28.00,31.03,14.39,48.08,1017.11,2031.99,2794.70,2569.23,2935.01,599.69,594.46,24.40,0000 0000 0000 0000 000000
2016-09-06 12:48:12,0.01,2.04,0.00,23.75,28.00,31.02,14.43,48.16,1017.11,2031.99,2794.28,2569.09,2935.00,599.91,594.73,24.45,0000 0000 0000 0000 000000
2016-09-06 12:53:14,-0.00,2.04,0.00,23.76,27.99,31.02,14.49,48.05,1017.11,2031.99,2794.26,2569.25,2935.00,600.27,595.04,24.50,0000 0000 0000 0000 000000
2016-09-06 12:58:15,0.01,2.04,0.00,23.73,27.97,31.02,14.44,48.07,1017.11,2032.00,2794.05,2569.11,2935.00,599.54,594.42,24.55,0000 0000 0000 0000 000000